Regional Weather Roundup
Issued by NWS

Home | Current Version | Previous Version | Text Only | Print | Product List | Glossary Off
Versions: 1 2 3 4 5 6 7 8 9 10 11 12 13 14 15 16 17 18 19 20 21 22 23 24 25 26 27 28 29 30 31 32 33 34 35 36 37 38 39 40 41 42 43 44 45 46 47 48 49 50

000
ASUS45 KSLC 252010
RWRUT

UTAH REGIONAL WEATHER ROUNDUP
NATIONAL WEATHER SERVICE SALT LAKE CITY UT
200 PM MDT WED MAY 25 2016

UTZ001>011-023>025-252100-

NORTHERN UTAH

CITY           SKY/WX    TMP DP  RH WIND       PRES   REMARKS
BRIGHAM CITY     N/A     61  38  41 N8        30.04S
DUGWAY         MOSUNNY   68  35  29 NW6       30.03F
HILL AFB       PTSUNNY   60  39  45 SW8       30.03F
LOGAN          PTSUNNY   55  46  71 E12       30.03F
OGDEN          MOSUNNY   64  40  41 W9        30.02S
PROVO AIRPORT  PTSUNNY   64  36  34 NW12G17   30.01F
SALT LAKE CITY PTSUNNY   62  41  46 S7        30.04R
VERNAL         MOSUNNY   67  28  23 SW10G17   30.01F
WENDOVER       MOSUNNY   64  36  34 SE7       30.02F
HEBER CITY     PTSUNNY   66  30  26 SW13      30.01S
WEST JORDAN    CLOUDY    57  39  51 W13       30.06R

$$

UTZ012>022-026-027-252100-

SOUTHERN/CENTRAL UTAH

CITY           SKY/WX    TMP DP  RH WIND       PRES   REMARKS
BLANDING       SUNNY     68  16  13 S14G23    30.15F
BRYCE CANYON   SUNNY     58  17  20 SE13G23   30.11F
CEDAR CITY     MOSUNNY   69  23  17 SW15G21   30.01F
DELTA          MOSUNNY   64  30  27 NW3       30.01F
HANKSVILLE     SUNNY     73  19  13 SW13G18   30.00
MILFORD        SUNNY     69  15  12 S14       30.00F
MOAB/CYNLANDS  SUNNY     74  17  11 W18G24    29.98F
PRICE          PTSUNNY   62  26  25 VRB3      30.05F
ST GEORGE      MOCLDY    77  21  12 N9        29.95F
KANAB          SUNNY     72  12  10 SW8G16    30.06F

$$

REGIONAL REPORTS     COLORADO/ARIZONA

CITY           SKY/WX    TMP DP  RH WIND       PRES   REMARKS
CRAIG, CO      CLOUDY    66  25  21 SW15G29   30.04F
GRAND JUNCTION SUNNY     70  24  17 CALM      30.00F
RIFLE          MOSUNNY   71  23  16 W16G28    30.01F
MONTROSE       SUNNY     71  11  10 W18G24    30.05F
CORTEZ         SUNNY     70  15  12 SW9G21    30.09F
PAGE, AZ       SUNNY     75  14  10 E10       29.98F
GRAND CANYON   SUNNY     65  16  15 SW17G24   30.11F
KINGMAN        SUNNY     76  25  15 SW23G33   29.98F
FLAGSTAFF      NOT AVBL

$$

REGIONAL REPORTS    NEVADA/IDAHO/WYOMING

CITY           SKY/WX    TMP DP  RH WIND       PRES   REMARKS
LAS VEGAS, NV  MOSUNNY   77  29  17 VRB5      29.89F
ELY            CLOUDY    55  34  45 SW8       30.07F
ELKO           RAIN      49  41  74 W14G24    30.05R
POCATELLO, ID  CLOUDY    64  41  42 W16       30.01F
BURLEY         MOSUNNY   62  40  44 VRB7G18   30.01F
EVANSTON, WY   CLOUDY    51  34  52 S12       30.08S
ROCK SPRINGS   LGT RAIN  51  38  60 SW24G32   30.08R
KEMMERER         N/A     52  34  50 W10G17    30.08F

$$



USA.gov is the U.S. government's official web portal to all federal, state and local government web resources and services.